bpm-power.com alexa rank chart, bpm-power.com alexa rank daily changes

bpm-power.com alexa rank chart, bpm-power.com alexa rank daily changes

bpm-power.com
Actual rank:
59 215

RANK HISTORY

Date Rank Diff
2017/10/19 59 215 -560
2017/10/18 59 775 +1 168
2017/10/17 58 607 +611
2017/10/16 57 996 +440
2017/10/14 57 556 +581
2017/10/13 56 975 -103
2017/10/12 57 078 -1 260
2017/10/11 58 338 -843
2017/10/10 59 181 +1 460
2017/10/09 57 721 +90
2017/10/08 57 631 -600
2017/10/07 58 231 -15
2017/10/06 58 246 -444
2017/10/05 58 690 -468
2017/10/04 59 158 -702
2017/10/03 59 860 -11
2017/10/02 59 871 +651
2017/10/01 59 220 +899
2017/09/30 58 321 +126
2017/09/29 58 195 +690
2017/09/28 57 505 -465
2017/09/27 57 970 +318
2017/09/26 57 652 -554
2017/09/25 58 206 +463
2017/09/24 57 743 +558
2017/09/23 57 185 -1 613
2017/09/22 58 798 -1 374
2017/09/20 60 172 -1 805
2017/09/19 61 977 -369
2017/09/18 62 346 -1 160
2017/09/17 63 506 -2 192
2017/09/16 65 698 -866
2017/09/15 66 564 -2 923
2017/09/14 69 487 -1 838
2017/09/13 71 325 -1 592
2017/09/12 72 917 +2 969
2017/09/11 69 948 +436
2017/09/10 69 512 +73
2017/09/09 69 439 +188
2017/09/08 69 251 -633
2017/09/07 69 884 -337
2017/09/06 70 221 +1 225
2017/09/05 68 996 +1 983
2017/09/04 67 013 +919
2017/09/03 66 094 +557
2017/09/02 65 537 +280
2017/09/01 65 257 -2 148
2017/08/31 67 405 +6
2017/08/30 67 399 -2 158
2017/08/29 69 557 -452
2017/08/28 70 009 +1 348
2017/08/27 68 661 +369
2017/08/26 68 292 +1 035
2017/08/25 67 257 +1 085
2017/08/24 66 172 -133
2017/08/23 66 305 -651
2017/08/22 66 956 +1 026
2017/08/21 65 930 +1 351
2017/08/20 64 579

WIDGET FOR YOUR SITE

DOMAINS WITH THE NEAREST RANK

Domain Rank
atrafshan.ir 59 210
gamekana.com 59 211
sekolahdasar.net 59 212
syriatel.sy 59 213
bigbangpage.com 59 214
bpm-power.com 59 215
trustedhousesitters.com 59 216
brahminmatrimony.com 59 217
orixbank.co.jp 59 218
excelcampus.com 59 219
ug.dk 59 220

DOMAINS WITH THE NEAREST RANK BY TLD .com

Domain Rank
wanderingwifi.com 59 206
apkmb.com 59 208
ypf.com 59 209
gamekana.com 59 211
bigbangpage.com 59 214
bpm-power.com 59 215
trustedhousesitters.com 59 216
brahminmatrimony.com 59 217
excelcampus.com 59 219
passion.com 59 222
swissgolden.com 59 223